Time,TemperatureF,DewpointF,PressureIn,WindDirection,WindDirectionDegrees,WindSpeedMPH,WindSpeedGustMPH,Humidity,HourlyPrecipIn,Conditions,Clouds,dailyrainin,SoftwareType,DateUTC
2013-09-06 00:03:00,72.4,60.8,30.23,ENE,68,0.0,0.0,67,0.00,,,0.00,WUHU216HW,2013-09-06 05:03:00,
2013-09-06 00:08:00,72.2,60.6,30.23,ENE,68,0.0,0.2,67,0.00,,,0.00,WUHU216HW,2013-09-06 05:08:00,
2013-09-06 00:13:00,72.0,60.4,30.23,ENE,68,0.0,0.2,67,0.00,,,0.00,WUHU216HW,2013-09-06 05:13:00,
2013-09-06 00:18:00,72.0,60.4,30.22,ENE,68,0.0,0.0,67,0.00,,,0.00,WUHU216HW,2013-09-06 05:18:00,
2013-09-06 00:23:00,72.0,60.4,30.22,ENE,68,0.0,0.0,67,0.00,,,0.00,WUHU216HW,2013-09-06 05:23:00,
2013-09-06 00:28:00,71.8,60.7,30.22,ENE,68,0.0,0.0,68,0.00,,,0.00,WUHU216HW,2013-09-06 05:28:00,
2013-09-06 00:33:00,71.8,60.7,30.22,ENE,68,0.0,0.0,68,0.00,,,0.00,WUHU216HW,2013-09-06 05:33:00,
2013-09-06 00:38:00,71.6,60.5,30.23,ENE,68,0.0,0.0,68,0.00,,,0.00,WUHU216HW,2013-09-06 05:38:00,
2013-09-06 00:43:00,71.6,60.1,30.23,ENE,68,0.0,0.0,67,0.00,,,0.00,WUHU216HW,2013-09-06 05:43:00,
2013-09-06 00:48:00,71.5,60.0,30.23,ENE,68,0.0,0.0,67,0.00,,,0.00,WUHU216HW,2013-09-06 05:48:00,
2013-09-06 00:53:00,71.5,60.3,30.22,ENE,68,0.0,0.0,68,0.00,,,0.00,WUHU216HW,2013-09-06 05:53:00,
2013-09-06 00:58:00,71.3,60.1,30.22,ENE,68,0.0,0.2,68,0.00,,,0.00,WUHU216HW,2013-09-06 05:58:00,
2013-09-06 01:03:00,71.3,60.1,30.22,ESE,113,0.0,0.2,68,0.00,,,0.00,WUHU216HW,2013-09-06 06:03:00,
2013-09-06 01:08:00,71.3,60.1,30.22,SSE,158,0.4,1.8,68,0.00,,,0.00,WUHU216HW,2013-09-06 06:08:00,
2013-09-06 01:13:00,71.3,60.1,30.22,SSE,158,0.0,1.8,68,0.00,,,0.00,WUHU216HW,2013-09-06 06:13:00,
2013-09-06 01:18:00,71.3,60.1,30.22,SSE,158,0.0,1.3,68,0.00,,,0.00,WUHU216HW,2013-09-06 06:18:00,
2013-09-06 01:23:00,71.3,60.1,30.22,SSE,158,1.1,1.1,68,0.00,,,0.00,WUHU216HW,2013-09-06 06:23:00,
2013-09-06 01:28:00,71.3,60.1,30.22,SE,135,0.7,2.2,68,0.00,,,0.00,WUHU216HW,2013-09-06 06:28:00,
2013-09-06 01:33:00,71.1,60.0,30.22,South,180,1.3,2.2,68,0.00,,,0.00,WUHU216HW,2013-09-06 06:33:00,
2013-09-06 01:38:00,71.1,60.0,30.22,SSE,158,0.4,1.8,68,0.00,,,0.00,WUHU216HW,2013-09-06 06:38:00,
2013-09-06 01:43:00,71.1,60.0,30.22,South,180,0.2,1.8,68,0.00,,,0.00,WUHU216HW,2013-09-06 06:43:00,
2013-09-06 01:48:00,71.1,60.0,30.22,SSE,158,1.3,1.6,68,0.00,,,0.00,WUHU216HW,2013-09-06 06:48:00,
2013-09-06 01:53:00,70.9,59.9,30.22,SE,135,0.0,1.3,68,0.00,,,0.00,WUHU216HW,2013-09-06 06:53:00,
2013-09-06 01:58:00,70.9,59.9,30.22,SE,135,0.0,1.3,68,0.00,,,0.00,WUHU216HW,2013-09-06 06:58:00,
2013-09-06 02:03:00,70.7,60.0,30.21,SSW,203,1.1,1.3,69,0.00,,,0.00,WUHU216HW,2013-09-06 07:03:00,
2013-09-06 02:08:00,70.6,59.9,30.21,SSW,203,0.7,2.5,69,0.00,,,0.00,WUHU216HW,2013-09-06 07:08:00,
2013-09-06 02:13:00,70.6,59.9,30.21,South,180,0.0,2.5,69,0.00,,,0.00,WUHU216HW,2013-09-06 07:13:00,
2013-09-06 02:18:00,70.6,59.9,30.21,SSE,158,0.0,2.2,69,0.00,,,0.00,WUHU216HW,2013-09-06 07:18:00,
2013-09-06 02:23:00,70.4,59.7,30.21,South,180,0.0,1.1,69,0.00,,,0.00,WUHU216HW,2013-09-06 07:23:00,
2013-09-06 02:28:00,70.4,59.7,30.21,South,180,0.0,0.2,69,0.00,,,0.00,WUHU216HW,2013-09-06 07:28:00,
2013-09-06 02:33:00,70.4,59.7,30.21,South,180,0.0,1.6,69,0.00,,,0.00,WUHU216HW,2013-09-06 07:33:00,
2013-09-06 02:38:00,70.2,59.9,30.20,SSE,158,0.0,1.6,70,0.00,,,0.00,WUHU216HW,2013-09-06 07:38:00,
2013-09-06 02:43:00,70.2,59.9,30.20,SSE,158,0.4,1.1,70,0.00,,,0.00,WUHU216HW,2013-09-06 07:43:00,
2013-09-06 02:48:00,70.0,59.8,30.20,SSE,158,0.9,1.1,70,0.00,,,0.00,WUHU216HW,2013-09-06 07:48:00,
2013-09-06 02:53:00,70.0,59.8,30.20,SSE,158,0.4,1.1,70,0.00,,,0.00,WUHU216HW,2013-09-06 07:53:00,
2013-09-06 02:58:00,69.8,59.6,30.20,SE,135,0.7,1.1,70,0.00,,,0.00,WUHU216HW,2013-09-06 07:58:00,
2013-09-06 03:03:00,69.8,59.6,30.20,SE,135,0.0,1.1,70,0.00,,,0.00,WUHU216HW,2013-09-06 08:03:00,
2013-09-06 03:08:00,69.8,59.6,30.20,SSE,158,0.4,1.6,70,0.00,,,0.00,WUHU216HW,2013-09-06 08:08:00,
2013-09-06 03:13:00,69.8,59.6,30.21,NE,45,0.0,1.6,70,0.00,,,0.00,WUHU216HW,2013-09-06 08:13:00,
2013-09-06 03:18:00,69.8,59.6,30.21,SW,225,0.7,1.6,70,0.00,,,0.00,WUHU216HW,2013-09-06 08:18:00,
2013-09-06 03:23:00,69.7,59.4,30.21,South,180,0.0,2.2,70,0.00,,,0.00,WUHU216HW,2013-09-06 08:23:00,
2013-09-06 03:28:00,69.7,59.4,30.21,SSW,203,1.6,2.2,70,0.00,,,0.00,WUHU216HW,2013-09-06 08:28:00,
2013-09-06 03:33:00,69.7,59.8,30.21,SSE,158,0.0,1.6,71,0.00,,,0.00,WUHU216HW,2013-09-06 08:33:00,
2013-09-06 03:38:00,69.5,59.7,30.21,South,180,0.0,1.6,71,0.00,,,0.00,WUHU216HW,2013-09-06 08:38:00,
2013-09-06 03:43:00,69.5,59.7,30.21,South,180,0.0,1.3,71,0.00,,,0.00,WUHU216HW,2013-09-06 08:43:00,
2013-09-06 03:48:00,69.5,59.7,30.21,East,90,0.0,0.7,71,0.00,,,0.00,WUHU216HW,2013-09-06 08:48:00,
2013-09-06 03:53:00,69.5,59.7,30.20,East,90,0.0,0.7,71,0.00,,,0.00,WUHU216HW,2013-09-06 08:53:00,
2013-09-06 03:58:00,69.3,59.5,30.20,East,90,0.0,0.4,71,0.00,,,0.00,WUHU216HW,2013-09-06 08:58:00,
2013-09-06 04:03:00,69.1,59.7,30.20,NE,45,0.4,0.4,72,0.00,,,0.00,WUHU216HW,2013-09-06 09:03:00,
2013-09-06 04:08:00,69.1,59.7,30.21,NE,45,0.7,0.9,72,0.00,,,0.00,WUHU216HW,2013-09-06 09:08:00,
2013-09-06 04:13:00,69.1,59.7,30.20,NE,45,0.0,0.9,72,0.00,,,0.00,WUHU216HW,2013-09-06 09:13:00,
2013-09-06 04:18:00,68.9,60.0,30.20,NE,45,0.0,0.4,73,0.00,,,0.00,WUHU216HW,2013-09-06 09:18:00,
2013-09-06 04:23:00,68.8,59.8,30.20,NE,45,0.0,0.0,73,0.00,,,0.00,WUHU216HW,2013-09-06 09:23:00,
2013-09-06 04:28:00,68.8,59.8,30.21,NE,45,0.0,0.4,73,0.00,,,0.00,WUHU216HW,2013-09-06 09:28:00,
2013-09-06 04:33:00,68.6,59.6,30.20,NE,45,0.0,0.4,73,0.00,,,0.00,WUHU216HW,2013-09-06 09:33:00,
2013-09-06 04:38:00,68.6,59.6,30.21,NE,45,0.0,0.0,73,0.00,,,0.00,WUHU216HW,2013-09-06 09:38:00,
2013-09-06 04:43:00,68.4,59.8,30.20,NE,45,0.0,0.0,74,0.00,,,0.00,WUHU216HW,2013-09-06 09:43:00,
2013-09-06 04:48:00,68.4,59.8,30.21,NE,45,0.0,0.0,74,0.00,,,0.00,WUHU216HW,2013-09-06 09:48:00,
2013-09-06 04:53:00,68.2,59.7,30.20,NE,45,0.0,0.0,74,0.00,,,0.00,WUHU216HW,2013-09-06 09:53:00,
2013-09-06 04:58:00,68.2,59.7,30.21,NE,45,0.0,0.0,74,0.00,,,0.00,WUHU216HW,2013-09-06 09:58:00,
2013-09-06 05:03:00,68.0,59.5,30.21,NE,45,0.0,0.0,74,0.00,,,0.00,WUHU216HW,2013-09-06 10:03:00,
2013-09-06 05:08:00,68.0,59.5,30.20,NE,45,0.0,0.0,74,0.00,,,0.00,WUHU216HW,2013-09-06 10:08:00,
2013-09-06 05:13:00,68.0,59.5,30.20,NE,45,0.0,0.0,74,0.00,,,0.00,WUHU216HW,2013-09-06 10:13:00,
2013-09-06 05:18:00,67.9,59.3,30.20,NE,45,0.0,0.2,74,0.00,,,0.00,WUHU216HW,2013-09-06 10:18:00,
2013-09-06 05:23:00,67.7,59.5,30.20,NE,45,0.0,0.7,75,0.00,,,0.00,WUHU216HW,2013-09-06 10:23:00,
2013-09-06 05:28:00,67.7,59.5,30.21,NE,45,0.0,0.7,75,0.00,,,0.00,WUHU216HW,2013-09-06 10:28:00,
2013-09-06 05:33:00,67.7,59.5,30.21,NE,45,0.0,0.4,75,0.00,,,0.00,WUHU216HW,2013-09-06 10:33:00,
2013-09-06 05:38:00,67.7,59.5,30.21,NE,45,0.0,0.0,75,0.00,,,0.00,WUHU216HW,2013-09-06 10:38:00,
2013-09-06 05:43:00,67.5,59.7,30.21,NE,45,0.0,0.0,76,0.00,,,0.00,WUHU216HW,2013-09-06 10:43:00,
2013-09-06 05:48:00,67.5,59.7,30.20,NE,45,0.0,0.0,76,0.00,,,0.00,WUHU216HW,2013-09-06 10:48:00,
2013-09-06 05:53:00,67.5,59.7,30.21,NE,45,0.0,0.0,76,0.00,,,0.00,WUHU216HW,2013-09-06 10:53:00,
2013-09-06 05:58:00,67.5,59.7,30.21,NE,45,0.0,0.0,76,0.00,,,0.00,WUHU216HW,2013-09-06 10:58:00,
2013-09-06 06:03:00,67.5,59.7,30.21,NE,45,0.0,0.0,76,0.00,,,0.00,WUHU216HW,2013-09-06 11:03:00,
2013-09-06 06:08:00,67.5,59.7,30.21,NE,45,0.0,0.4,76,0.00,,,0.00,WUHU216HW,2013-09-06 11:08:00,
2013-09-06 06:13:00,67.7,59.9,30.21,NE,45,0.0,0.4,76,0.00,,,0.00,WUHU216HW,2013-09-06 11:13:00,
2013-09-06 06:18:00,67.5,59.7,30.21,NE,45,0.0,0.0,76,0.00,,,0.00,WUHU216HW,2013-09-06 11:18:00,
2013-09-06 06:23:00,67.5,60.0,30.21,NE,45,0.0,0.4,77,0.00,,,0.00,WUHU216HW,2013-09-06 11:23:00,
2013-09-06 06:28:00,67.5,59.7,30.22,SW,225,0.0,0.4,76,0.00,,,0.00,WUHU216HW,2013-09-06 11:28:00,
2013-09-06 06:33:00,67.5,60.0,30.22,SSW,203,0.0,0.4,77,0.00,,,0.00,WUHU216HW,2013-09-06 11:33:00,
2013-09-06 06:38:00,67.5,60.0,30.22,South,180,0.0,0.0,77,0.00,,,0.00,WUHU216HW,2013-09-06 11:38:00,
2013-09-06 06:43:00,67.7,60.2,30.22,South,180,0.0,0.0,77,0.00,,,0.00,WUHU216HW,2013-09-06 11:43:00,
2013-09-06 06:48:00,67.7,60.2,30.22,South,180,0.0,0.0,77,0.00,,,0.00,WUHU216HW,2013-09-06 11:48:00,
2013-09-06 06:53:00,67.7,60.2,30.22,South,180,0.0,0.0,77,0.00,,,0.00,WUHU216HW,2013-09-06 11:53:00,
2013-09-06 06:58:00,67.7,60.2,30.22,South,180,0.0,0.0,77,0.00,,,0.00,WUHU216HW,2013-09-06 11:58:00,
2013-09-06 07:03:00,67.7,60.2,30.22,South,180,0.0,0.0,77,0.00,,,0.00,WUHU216HW,2013-09-06 12:03:00,
2013-09-06 07:08:00,67.7,60.2,30.22,South,180,0.0,0.0,77,0.00,,,0.00,WUHU216HW,2013-09-06 12:08:00,
2013-09-06 07:13:00,67.7,60.2,30.22,South,180,0.0,0.0,77,0.00,,,0.00,WUHU216HW,2013-09-06 12:13:00,
2013-09-06 07:18:00,67.7,60.2,30.22,South,180,0.0,0.0,77,0.00,,,0.00,WUHU216HW,2013-09-06 12:18:00,
2013-09-06 07:23:00,67.7,60.2,30.22,South,180,0.0,0.0,77,0.00,,,0.00,WUHU216HW,2013-09-06 12:23:00,
2013-09-06 07:28:00,67.7,60.2,30.22,South,180,0.0,0.0,77,0.00,,,0.00,WUHU216HW,2013-09-06 12:28:00,
2013-09-06 07:33:00,67.7,60.2,30.23,South,180,0.0,0.0,77,0.00,,,0.00,WUHU216HW,2013-09-06 12:33:00,
2013-09-06 07:38:00,67.9,60.4,30.23,South,180,0.0,0.0,77,0.00,,,0.00,WUHU216HW,2013-09-06 12:38:00,
2013-09-06 07:43:00,67.7,60.2,30.23,South,180,0.0,0.0,77,0.00,,,0.00,WUHU216HW,2013-09-06 12:43:00,
2013-09-06 07:48:00,67.9,60.4,30.23,SSE,158,0.0,0.7,77,0.00,,,0.00,WUHU216HW,2013-09-06 12:48:00,
2013-09-06 07:53:00,68.0,61.0,30.23,SSE,158,0.0,0.7,78,0.00,,,0.00,WUHU216HW,2013-09-06 12:53:00,
2013-09-06 07:58:00,68.0,61.0,30.23,SSE,158,0.0,0.2,78,0.00,,,0.00,WUHU216HW,2013-09-06 12:58:00,
2013-09-06 08:03:00,68.0,61.0,30.23,SSE,158,0.0,0.2,78,0.00,,,0.00,WUHU216HW,2013-09-06 13:03:00,
2013-09-06 08:08:00,68.2,61.1,30.23,SE,135,0.7,0.7,78,0.00,,,0.00,WUHU216HW,2013-09-06 13:08:00,
2013-09-06 08:13:00,68.4,61.3,30.23,SE,135,0.4,1.1,78,0.00,,,0.00,WUHU216HW,2013-09-06 13:13:00,
2013-09-06 08:18:00,68.6,61.5,30.23,SE,135,0.0,1.6,78,0.00,,,0.00,WUHU216HW,2013-09-06 13:18:00,
2013-09-06 08:23:00,68.8,61.3,30.23,SE,135,1.1,1.8,77,0.00,,,0.00,WUHU216HW,2013-09-06 13:23:00,
2013-09-06 08:28:00,68.9,61.4,30.23,North,0,2.5,2.5,77,0.00,,,0.00,WUHU216HW,2013-09-06 13:28:00,
2013-09-06 08:33:00,69.1,61.6,30.23,South,180,1.1,2.9,77,0.00,,,0.00,WUHU216HW,2013-09-06 13:33:00,
2013-09-06 08:38:00,69.3,61.4,30.23,SW,225,1.1,2.9,76,0.00,,,0.00,WUHU216HW,2013-09-06 13:38:00,
2013-09-06 08:43:00,69.7,61.7,30.23,South,180,1.6,2.9,76,0.00,,,0.00,WUHU216HW,2013-09-06 13:43:00,
2013-09-06 08:48:00,69.8,61.5,30.23,SE,135,1.6,3.1,75,0.00,,,0.00,WUHU216HW,2013-09-06 13:48:00,
2013-09-06 08:53:00,70.2,61.8,30.23,South,180,2.2,3.1,75,0.00,,,0.00,WUHU216HW,2013-09-06 13:53:00,
2013-09-06 08:58:00,70.4,62.0,30.23,WSW,248,0.0,3.1,75,0.00,,,0.00,WUHU216HW,2013-09-06 13:58:00,
2013-09-06 09:03:00,70.6,61.8,30.23,East,90,0.4,3.1,74,0.00,,,0.00,WUHU216HW,2013-09-06 14:03:00,
2013-09-06 09:08:00,70.7,62.0,30.23,SSE,158,1.6,4.0,74,0.00,,,0.00,WUHU216HW,2013-09-06 14:08:00,
2013-09-06 09:13:00,70.9,62.2,30.23,South,180,0.2,4.0,74,0.00,,,0.00,WUHU216HW,2013-09-06 14:13:00,
2013-09-06 09:18:00,71.3,62.6,30.23,ESE,113,0.2,2.5,74,0.00,,,0.00,WUHU216HW,2013-09-06 14:18:00,
2013-09-06 09:23:00,71.5,62.7,30.23,South,180,1.8,4.0,74,0.00,,,0.00,WUHU216HW,2013-09-06 14:23:00,
2013-09-06 09:28:00,71.8,63.1,30.23,South,180,1.1,4.0,74,0.00,,,0.00,WUHU216HW,2013-09-06 14:28:00,
2013-09-06 09:33:00,72.2,63.1,30.24,SE,135,1.3,3.6,73,0.00,,,0.00,WUHU216HW,2013-09-06 14:33:00,
2013-09-06 09:38:00,72.5,63.8,30.24,ESE,113,1.3,3.8,74,0.00,,,0.00,WUHU216HW,2013-09-06 14:38:00,
2013-09-06 09:43:00,72.9,63.8,30.23,East,90,0.0,3.8,73,0.00,,,0.00,WUHU216HW,2013-09-06 14:43:00,
2013-09-06 09:48:00,73.3,64.2,30.23,WSW,248,2.2,2.7,73,0.00,,,0.00,WUHU216HW,2013-09-06 14:48:00,
2013-09-06 09:53:00,73.6,64.4,30.24,South,180,0.9,2.7,73,0.00,,,0.00,WUHU216HW,2013-09-06 14:53:00,
2013-09-06 09:58:00,74.2,64.6,30.23,SSE,158,1.6,3.1,72,0.00,,,0.00,WUHU216HW,2013-09-06 14:58:00,
2013-09-06 10:03:00,74.5,64.9,30.23,SSW,203,1.3,3.1,72,0.00,,,0.00,WUHU216HW,2013-09-06 15:03:00,
2013-09-06 10:08:00,74.9,64.9,30.23,SSW,203,3.1,3.4,71,0.00,,,0.00,WUHU216HW,2013-09-06 15:08:00,
2013-09-06 10:13:00,75.2,64.8,30.23,NNW,338,2.5,4.7,70,0.00,,,0.00,WUHU216HW,2013-09-06 15:13:00,
2013-09-06 10:18:00,75.6,65.2,30.23,WSW,248,2.5,4.7,70,0.00,,,0.00,WUHU216HW,2013-09-06 15:18:00,
2013-09-06 10:23:00,76.0,65.1,30.23,SSE,158,2.0,3.6,69,0.00,,,0.00,WUHU216HW,2013-09-06 15:23:00,
2013-09-06 10:28:00,76.3,65.0,30.23,SSE,158,1.1,3.6,68,0.00,,,0.00,WUHU216HW,2013-09-06 15:28:00,
2013-09-06 10:33:00,76.7,65.3,30.23,SSE,158,0.9,2.7,68,0.00,,,0.00,WUHU216HW,2013-09-06 15:33:00,
2013-09-06 10:38:00,77.0,65.3,30.23,SSW,203,4.3,4.3,67,0.00,,,0.00,WUHU216HW,2013-09-06 15:38:00,
2013-09-06 10:43:00,77.0,65.3,30.23,South,180,3.4,6.5,67,0.00,,,0.00,WUHU216HW,2013-09-06 15:43:00,
2013-09-06 10:48:00,77.4,65.2,30.23,ENE,68,0.4,6.5,66,0.00,,,0.00,WUHU216HW,2013-09-06 15:48:00,
2013-09-06 10:53:00,77.8,65.5,30.23,ESE,113,2.2,3.4,66,0.00,,,0.00,WUHU216HW,2013-09-06 15:53:00,
2013-09-06 10:58:00,78.1,65.3,30.23,SE,135,1.6,4.7,65,0.00,,,0.00,WUHU216HW,2013-09-06 15:58:00,
2013-09-06 11:03:00,78.3,65.5,30.23,SW,225,0.0,4.7,65,0.00,,,0.00,WUHU216HW,2013-09-06 16:03:00,
2013-09-06 11:08:00,78.7,65.9,30.23,SW,225,2.0,2.9,65,0.00,,,0.00,WUHU216HW,2013-09-06 16:08:00,
2013-09-06 11:13:00,79.2,66.4,30.23,South,180,3.1,3.8,65,0.00,,,0.00,WUHU216HW,2013-09-06 16:13:00,
2013-09-06 11:18:00,79.6,66.3,30.23,WSW,248,0.9,3.8,64,0.00,,,0.00,WUHU216HW,2013-09-06 16:18:00,
2013-09-06 11:23:00,79.6,66.3,30.23,WSW,248,1.1,2.5,64,0.00,,,0.00,WUHU216HW,2013-09-06 16:23:00,
2013-09-06 11:28:00,79.6,66.3,30.23,SE,135,0.7,2.2,64,0.00,,,0.00,WUHU216HW,2013-09-06 16:28:00,
2013-09-06 11:33:00,79.6,66.3,30.23,West,270,0.7,2.2,64,0.00,,,0.00,WUHU216HW,2013-09-06 16:33:00,
2013-09-06 11:38:00,79.6,66.3,30.23,WSW,248,3.4,3.4,64,0.00,,,0.00,WUHU216HW,2013-09-06 16:38:00,
2013-09-06 11:43:00,79.9,66.6,30.23,SW,225,0.9,3.4,64,0.00,,,0.00,WUHU216HW,2013-09-06 16:43:00,
2013-09-06 11:48:00,80.3,67.0,30.23,ESE,113,1.8,3.4,64,0.00,,,0.00,WUHU216HW,2013-09-06 16:48:00,
2013-09-06 11:53:00,80.8,67.1,30.22,WSW,248,2.5,4.0,63,0.00,,,0.00,WUHU216HW,2013-09-06 16:53:00,
2013-09-06 11:58:00,81.2,66.9,30.23,South,180,0.4,4.3,62,0.00,,,0.00,WUHU216HW,2013-09-06 16:58:00,
2013-09-06 12:03:00,81.5,67.2,30.22,NW,315,1.1,4.3,62,0.00,,,0.00,WUHU216HW,2013-09-06 17:03:00,
2013-09-06 12:08:00,81.9,67.2,30.22,SE,135,1.8,5.8,61,0.00,,,0.00,WUHU216HW,2013-09-06 17:08:00,
2013-09-06 12:13:00,82.3,67.0,30.22,ESE,113,2.0,5.8,60,0.00,,,0.00,WUHU216HW,2013-09-06 17:13:00,
2013-09-06 12:18:00,82.4,67.1,30.22,SSW,203,2.5,4.0,60,0.00,,,0.00,WUHU216HW,2013-09-06 17:18:00,
2013-09-06 12:23:00,82.6,67.3,30.21,SSE,158,2.5,4.0,60,0.00,,,0.00,WUHU216HW,2013-09-06 17:23:00,
2013-09-06 12:28:00,82.6,67.3,30.21,ESE,113,1.6,5.4,60,0.00,,,0.00,WUHU216HW,2013-09-06 17:28:00,
2013-09-06 12:33:00,82.8,67.5,30.21,ESE,113,1.3,5.4,60,0.00,,,0.00,WUHU216HW,2013-09-06 17:33:00,
2013-09-06 12:38:00,83.2,67.3,30.22,SW,225,1.8,3.6,59,0.00,,,0.00,WUHU216HW,2013-09-06 17:38:00,
2013-09-06 12:43:00,83.5,67.7,30.21,SSE,158,1.8,3.6,59,0.00,,,0.00,WUHU216HW,2013-09-06 17:43:00,
2013-09-06 12:48:00,83.9,68.0,30.21,South,180,2.0,4.5,59,0.00,,,0.00,WUHU216HW,2013-09-06 17:48:00,
2013-09-06 12:53:00,84.1,68.2,30.21,South,180,2.0,4.5,59,0.00,,,0.00,WUHU216HW,2013-09-06 17:53:00,
2013-09-06 12:58:00,84.2,68.4,30.20,SW,225,2.9,3.4,59,0.00,,,0.00,WUHU216HW,2013-09-06 17:58:00,
2013-09-06 13:03:00,84.6,68.2,30.20,ESE,113,1.1,4.7,58,0.00,,,0.00,WUHU216HW,2013-09-06 18:03:00,
2013-09-06 13:08:00,84.8,67.9,30.20,SW,225,2.2,4.7,57,0.00,,,0.00,WUHU216HW,2013-09-06 18:08:00,
2013-09-06 13:13:00,85.3,67.9,30.20,SE,135,1.3,4.0,56,0.00,,,0.00,WUHU216HW,2013-09-06 18:13:00,
2013-09-06 13:18:00,85.7,67.6,30.20,SSE,158,1.3,4.0,55,0.00,,,0.00,WUHU216HW,2013-09-06 18:18:00,
2013-09-06 13:23:00,85.7,68.1,30.19,West,270,1.8,4.0,56,0.00,,,0.00,WUHU216HW,2013-09-06 18:23:00,
2013-09-06 13:28:00,85.7,67.6,30.19,SE,135,1.1,4.5,55,0.00,,,0.00,WUHU216HW,2013-09-06 18:28:00,
2013-09-06 13:33:00,85.9,67.2,30.19,West,270,2.0,4.5,54,0.00,,,0.00,WUHU216HW,2013-09-06 18:33:00,
2013-09-06 13:38:00,85.9,67.8,30.19,SSW,203,2.0,4.0,55,0.00,,,0.00,WUHU216HW,2013-09-06 18:38:00,
2013-09-06 13:43:00,86.0,67.4,30.19,South,180,2.2,4.7,54,0.00,,,0.00,WUHU216HW,2013-09-06 18:43:00,
2013-09-06 13:48:00,86.4,67.8,30.18,SSE,158,1.1,4.7,54,0.00,,,0.00,WUHU216HW,2013-09-06 18:48:00,
2013-09-06 13:53:00,86.6,68.0,30.18,SW,225,1.3,3.4,54,0.00,,,0.00,WUHU216HW,2013-09-06 18:53:00,
2013-09-06 13:58:00,86.9,68.3,30.18,SW,225,3.4,4.7,54,0.00,,,0.00,WUHU216HW,2013-09-06 18:58:00,
2013-09-06 14:03:00,87.1,68.0,30.18,SE,135,0.2,4.7,53,0.00,,,0.00,WUHU216HW,2013-09-06 19:03:00,
2013-09-06 14:08:00,87.1,68.0,30.18,SW,225,2.7,3.6,53,0.00,,,0.00,WUHU216HW,2013-09-06 19:08:00,
2013-09-06 14:13:00,87.3,68.0,30.17,SSW,203,1.1,3.1,53,0.00,,,0.00,WUHU216HW,2013-09-06 19:13:00,
2013-09-06 14:18:00,87.5,68.2,30.17,SSW,203,4.3,4.7,53,0.00,,,0.00,WUHU216HW,2013-09-06 19:18:00,
2013-09-06 14:23:00,87.8,68.0,30.17,ESE,113,2.2,4.7,52,0.00,,,0.00,WUHU216HW,2013-09-06 19:23:00,
2013-09-06 14:28:00,87.8,67.5,30.17,SW,225,1.8,4.0,51,0.00,,,0.00,WUHU216HW,2013-09-06 19:28:00,
2013-09-06 14:33:00,87.8,68.0,30.17,ENE,68,3.8,4.5,52,0.00,,,0.00,WUHU216HW,2013-09-06 19:33:00,
2013-09-06 14:38:00,88.2,68.4,30.17,ESE,113,2.2,4.7,52,0.00,,,0.00,WUHU216HW,2013-09-06 19:38:00,
2013-09-06 14:43:00,88.2,67.9,30.16,ESE,113,1.8,4.7,51,0.00,,,0.00,WUHU216HW,2013-09-06 19:43:00,
2013-09-06 14:48:00,88.2,67.9,30.16,SSW,203,4.0,4.0,51,0.00,,,0.00,WUHU216HW,2013-09-06 19:48:00,
2013-09-06 14:53:00,88.4,68.0,30.16,South,180,2.7,4.7,51,0.00,,,0.00,WUHU216HW,2013-09-06 19:53:00,
2013-09-06 14:58:00,88.6,68.1,30.16,SSW,203,4.0,4.7,51,0.00,,,0.00,WUHU216HW,2013-09-06 19:58:00,
2013-09-06 15:03:00,88.4,67.4,30.15,SSE,158,3.4,6.9,50,0.00,,,0.00,WUHU216HW,2013-09-06 20:03:00,
2013-09-06 15:08:00,88.4,68.0,30.15,South,180,3.1,6.9,51,0.00,,,0.00,WUHU216HW,2013-09-06 20:08:00,
2013-09-06 15:13:00,88.4,67.4,30.15,South,180,4.9,6.5,50,0.00,,,0.00,WUHU216HW,2013-09-06 20:13:00,
2013-09-06 15:18:00,88.6,67.6,30.15,North,0,1.8,6.5,50,0.00,,,0.00,WUHU216HW,2013-09-06 20:18:00,
2013-09-06 15:23:00,88.4,67.4,30.15,SSE,158,4.5,6.3,50,0.00,,,0.00,WUHU216HW,2013-09-06 20:23:00,
2013-09-06 15:28:00,88.4,67.4,30.15,South,180,3.1,6.3,50,0.00,,,0.00,WUHU216HW,2013-09-06 20:28:00,
2013-09-06 15:33:00,88.6,67.6,30.14,SSW,203,3.8,5.6,50,0.00,,,0.00,WUHU216HW,2013-09-06 20:33:00,
2013-09-06 15:38:00,88.7,67.8,30.14,South,180,0.4,4.7,50,0.00,,,0.00,WUHU216HW,2013-09-06 20:38:00,
2013-09-06 15:43:00,88.9,68.0,30.14,South,180,1.1,6.3,50,0.00,,,0.00,WUHU216HW,2013-09-06 20:43:00,
2013-09-06 15:48:00,88.9,68.0,30.14,WSW,248,1.6,6.3,50,0.00,,,0.00,WUHU216HW,2013-09-06 20:48:00,
2013-09-06 15:53:00,88.9,67.3,30.13,SSW,203,1.8,5.6,49,0.00,,,0.00,WUHU216HW,2013-09-06 20:53:00,
2013-09-06 15:58:00,88.9,67.3,30.13,NNE,23,1.1,7.2,49,0.00,,,0.00,WUHU216HW,2013-09-06 20:58:00,
2013-09-06 16:03:00,88.9,67.3,30.13,SSW,203,2.0,7.2,49,0.00,,,0.00,WUHU216HW,2013-09-06 21:03:00,
2013-09-06 16:08:00,89.1,67.4,30.13,South,180,5.6,5.6,49,0.00,,,0.00,WUHU216HW,2013-09-06 21:08:00,
2013-09-06 16:13:00,88.9,67.3,30.13,NE,45,1.8,5.6,49,0.00,,,0.00,WUHU216HW,2013-09-06 21:13:00,
2013-09-06 16:18:00,89.1,67.4,30.12,SW,225,1.8,5.6,49,0.00,,,0.00,WUHU216HW,2013-09-06 21:18:00,
2013-09-06 16:23:00,89.3,67.6,30.13,SE,135,2.2,5.4,49,0.00,,,0.00,WUHU216HW,2013-09-06 21:23:00,
2013-09-06 16:28:00,89.3,67.6,30.12,SSW,203,2.9,4.7,49,0.00,,,0.00,WUHU216HW,2013-09-06 21:28:00,
2013-09-06 16:33:00,89.3,67.0,30.12,SSE,158,1.8,4.7,48,0.00,,,0.00,WUHU216HW,2013-09-06 21:33:00,
2013-09-06 16:38:00,89.5,67.2,30.12,South,180,2.9,4.7,48,0.00,,,0.00,WUHU216HW,2013-09-06 21:38:00,
2013-09-06 16:43:00,89.3,67.0,30.12,South,180,0.9,3.1,48,0.00,,,0.00,WUHU216HW,2013-09-06 21:43:00,
2013-09-06 16:48:00,89.3,67.6,30.12,SW,225,1.1,3.8,49,0.00,,,0.00,WUHU216HW,2013-09-06 21:48:00,
2013-09-06 16:53:00,89.1,66.8,30.12,SSW,203,2.5,4.9,48,0.00,,,0.00,WUHU216HW,2013-09-06 21:53:00,
2013-09-06 16:58:00,89.1,66.8,30.12,SW,225,3.1,4.9,48,0.00,,,0.00,WUHU216HW,2013-09-06 21:58:00,
2013-09-06 17:03:00,88.9,66.7,30.12,SSE,158,4.3,6.0,48,0.00,,,0.00,WUHU216HW,2013-09-06 22:03:00,
2013-09-06 17:08:00,88.9,67.3,30.12,ESE,113,2.0,6.0,49,0.00,,,0.00,WUHU216HW,2013-09-06 22:08:00,
2013-09-06 17:13:00,88.7,67.2,30.12,SSE,158,1.1,6.0,49,0.00,,,0.00,WUHU216HW,2013-09-06 22:13:00,
2013-09-06 17:18:00,88.6,66.3,30.11,NNE,23,0.7,3.8,48,0.00,,,0.00,WUHU216HW,2013-09-06 22:18:00,
2013-09-06 17:23:00,88.6,66.3,30.11,South,180,2.2,3.8,48,0.00,,,0.00,WUHU216HW,2013-09-06 22:23:00,
2013-09-06 17:28:00,88.6,67.0,30.11,SSE,158,1.6,3.8,49,0.00,,,0.00,WUHU216HW,2013-09-06 22:28:00,
2013-09-06 17:33:00,88.4,66.8,30.11,SSW,203,2.5,4.5,49,0.00,,,0.00,WUHU216HW,2013-09-06 22:33:00,
2013-09-06 17:38:00,88.2,66.7,30.11,South,180,3.1,5.4,49,0.00,,,0.00,WUHU216HW,2013-09-06 22:38:00,
2013-09-06 17:43:00,87.8,65.7,30.11,SSW,203,0.7,5.4,48,0.00,,,0.00,WUHU216HW,2013-09-06 22:43:00,
2013-09-06 17:48:00,87.7,66.2,30.11,SSW,203,1.1,5.6,49,0.00,,,0.00,WUHU216HW,2013-09-06 22:48:00,
2013-09-06 17:53:00,87.5,66.0,30.11,SE,135,1.8,5.6,49,0.00,,,0.00,WUHU216HW,2013-09-06 22:53:00,
2013-09-06 17:58:00,87.1,65.7,30.11,South,180,3.1,4.5,49,0.00,,,0.00,WUHU216HW,2013-09-06 22:58:00,
2013-09-06 18:03:00,86.8,65.3,30.11,South,180,3.8,4.7,49,0.00,,,0.00,WUHU216HW,2013-09-06 23:03:00,
2013-09-06 18:08:00,86.8,66.0,30.11,SE,135,3.4,4.7,50,0.00,,,0.00,WUHU216HW,2013-09-06 23:08:00,
2013-09-06 18:13:00,86.6,65.8,30.11,SSW,203,1.3,3.8,50,0.00,,,0.00,WUHU216HW,2013-09-06 23:13:00,
2013-09-06 18:18:00,86.2,65.5,30.10,SSE,158,0.4,3.4,50,0.00,,,0.00,WUHU216HW,2013-09-06 23:18:00,
2013-09-06 18:23:00,86.0,65.3,30.10,ESE,113,1.3,3.4,50,0.00,,,0.00,WUHU216HW,2013-09-06 23:23:00,
2013-09-06 18:28:00,85.9,65.2,30.10,SSW,203,1.8,4.7,50,0.00,,,0.00,WUHU216HW,2013-09-06 23:28:00,
2013-09-06 18:33:00,85.7,65.0,30.10,ESE,113,1.1,4.7,50,0.00,,,0.00,WUHU216HW,2013-09-06 23:33:00,
2013-09-06 18:38:00,85.5,65.3,30.10,SSE,158,0.2,4.0,51,0.00,,,0.00,WUHU216HW,2013-09-06 23:38:00,
2013-09-06 18:43:00,85.3,65.3,30.10,SSW,203,2.2,4.9,51,0.00,,,0.00,WUHU216HW,2013-09-06 23:43:00,
2013-09-06 18:48:00,85.1,65.1,30.10,SSE,158,1.3,4.9,51,0.00,,,0.00,WUHU216HW,2013-09-06 23:48:00,
2013-09-06 18:53:00,85.0,64.9,30.10,SSE,158,0.7,2.9,51,0.00,,,0.00,WUHU216HW,2013-09-06 23:53:00,
2013-09-06 18:58:00,84.6,65.1,30.10,NW,315,0.4,3.4,52,0.00,,,0.00,WUHU216HW,2013-09-06 23:58:00,
2013-09-06 19:03:00,84.4,64.5,30.10,SW,225,3.1,3.4,51,0.00,,,0.00,WUHU216HW,2013-09-07 00:03:00,
2013-09-06 19:08:00,84.2,64.3,30.10,SSE,158,0.7,3.4,51,0.00,,,0.00,WUHU216HW,2013-09-07 00:08:00,
2013-09-06 19:13:00,84.1,64.1,30.10,SSE,158,0.0,3.4,51,0.00,,,0.00,WUHU216HW,2013-09-07 00:13:00,
2013-09-06 19:18:00,83.9,63.9,30.10,SW,225,0.4,2.9,51,0.00,,,0.00,WUHU216HW,2013-09-07 00:18:00,
2013-09-06 19:23:00,83.7,64.3,30.10,SSE,158,0.0,1.6,52,0.00,,,0.00,WUHU216HW,2013-09-07 00:23:00,
2013-09-06 19:28:00,83.3,63.9,30.10,South,180,0.7,1.3,52,0.00,,,0.00,WUHU216HW,2013-09-07 00:28:00,
2013-09-06 19:33:00,83.2,63.7,30.10,SE,135,1.8,1.8,52,0.00,,,0.00,WUHU216HW,2013-09-07 00:33:00,
2013-09-06 19:38:00,83.0,63.6,30.10,SSE,158,0.0,2.0,52,0.00,,,0.00,WUHU216HW,2013-09-07 00:38:00,
2013-09-06 19:43:00,82.6,63.6,30.10,SSE,158,0.2,2.0,53,0.00,,,0.00,WUHU216HW,2013-09-07 00:43:00,
2013-09-06 19:48:00,82.4,63.5,30.09,SE,135,1.3,2.2,53,0.00,,,0.00,WUHU216HW,2013-09-07 00:48:00,
2013-09-06 19:53:00,82.1,63.2,30.09,SSE,158,1.1,2.2,53,0.00,,,0.00,WUHU216HW,2013-09-07 00:53:00,
2013-09-06 19:58:00,81.9,63.6,30.10,South,180,0.4,2.7,54,0.00,,,0.00,WUHU216HW,2013-09-07 00:58:00,
2013-09-06 20:03:00,81.7,63.4,30.10,SSE,158,0.4,2.7,54,0.00,,,0.00,WUHU216HW,2013-09-07 01:03:00,
2013-09-06 20:08:00,81.4,63.0,30.10,SSE,158,0.7,2.2,54,0.00,,,0.00,WUHU216HW,2013-09-07 01:08:00,
2013-09-06 20:13:00,81.2,63.4,30.10,SE,135,0.0,1.8,55,0.00,,,0.00,WUHU216HW,2013-09-07 01:13:00,
2013-09-06 20:18:00,81.0,63.3,30.10,SE,135,0.4,1.6,55,0.00,,,0.00,WUHU216HW,2013-09-07 01:18:00,
2013-09-06 20:23:00,80.8,63.1,30.10,SSE,158,0.7,2.2,55,0.00,,,0.00,WUHU216HW,2013-09-07 01:23:00,
2013-09-06 20:25:00,80.6,63.5,30.10,SE,135,0.4,0.4,56,0.00,,,0.00,WUHU216HW,2013-09-07 01:25:00,
2013-09-06 20:28:00,80.6,63.5,30.10,SE,135,0.4,2.2,56,0.00,,,0.00,WUHU216HW,2013-09-07 01:28:00,
2013-09-06 20:33:00,80.6,63.5,30.10,SE,135,0.4,0.9,56,0.00,,,0.00,WUHU216HW,2013-09-07 01:33:00,
2013-09-06 21:00:00,79.6,63.6,30.10,SE,135,0.4,0.4,58,0.00,,,0.00,WUHU216HW,2013-09-07 02:00:00,
2013-09-06 21:05:00,79.4,63.4,30.10,ESE,113,0.0,1.1,58,0.00,,,0.00,WUHU216HW,2013-09-07 02:05:00,
2013-09-06 21:08:00,79.2,63.2,30.10,SE,135,0.7,1.8,58,0.00,,,0.00,WUHU216HW,2013-09-07 02:08:00,
2013-09-06 21:10:00,79.2,63.2,30.10,SE,135,0.7,1.8,58,0.00,,,0.00,WUHU216HW,2013-09-07 02:10:00,
2013-09-06 21:15:00,79.2,63.2,30.10,SE,135,0.7,1.8,58,0.00,,,0.00,WUHU216HW,2013-09-07 02:15:00,
2013-09-06 22:00:00,77.8,63.3,30.09,SE,135,0.9,0.9,61,0.00,,,0.00,WUHU216HW,2013-09-07 03:00:00,
2013-09-06 22:05:00,77.8,63.3,30.09,SE,135,0.9,0.9,61,0.00,,,0.00,WUHU216HW,2013-09-07 03:05:00,
2013-09-06 23:00:00,76.7,62.2,30.09,SE,135,1.1,1.1,61,0.00,,,0.00,WUHU216HW,2013-09-07 04:00:00,
2013-09-06 23:01:00,76.7,62.2,30.09,SE,135,2.9,3.8,61,0.00,,,0.00,WUHU216HW,2013-09-07 04:01:00,
2013-09-06 23:02:00,76.5,62.1,30.09,SSE,158,3.8,3.8,61,0.00,,,0.00,WUHU216HW,2013-09-07 04:02:00,
2013-09-06 23:07:00,76.5,62.1,30.09,SSE,158,1.1,4.0,61,0.00,,,0.00,WUHU216HW,2013-09-07 04:07:00,
2013-09-06 23:12:00,76.5,62.1,30.09,SE,135,2.5,4.0,61,0.00,,,0.00,WUHU216HW,2013-09-07 04:12:00,
2013-09-06 23:17:00,76.3,61.9,30.09,SSE,158,1.1,4.7,61,0.00,,,0.00,WUHU216HW,2013-09-07 04:17:00,
2013-09-06 23:22:00,76.3,61.9,30.09,SSE,158,2.5,4.7,61,0.00,,,0.00,WUHU216HW,2013-09-07 04:22:00,
2013-09-06 23:27:00,76.3,61.9,30.09,SE,135,2.2,4.0,61,0.00,,,0.00,WUHU216HW,2013-09-07 04:27:00,
2013-09-06 23:32:00,76.3,62.4,30.10,SSE,158,1.1,3.1,62,0.00,,,0.00,WUHU216HW,2013-09-07 04:32:00,
2013-09-06 23:37:00,76.1,62.2,30.09,SSE,158,1.3,3.8,62,0.00,,,0.00,WUHU216HW,2013-09-07 04:37:00,
2013-09-06 23:42:00,76.1,62.2,30.09,SE,135,1.3,3.8,62,0.00,,,0.00,WUHU216HW,2013-09-07 04:42:00,
2013-09-06 23:47:00,76.0,62.0,30.09,SSW,203,4.7,4.7,62,0.00,,,0.00,WUHU216HW,2013-09-07 04:47:00,
2013-09-06 23:52:00,76.0,62.0,30.08,WSW,248,2.9,4.7,62,0.00,,,0.00,WUHU216HW,2013-09-07 04:52:00,
2013-09-06 23:57:00,75.8,61.8,30.09,SSE,158,0.4,4.7,62,0.00,,,0.00,WUHU216HW,2013-09-07 04:57:00,